Regional Weather Roundup
Issued by NWS Charleston, SC

Home | Current Version | Previous Version | Text Only | Print | Product List | Glossary On
Versions: 1 2 3 4 5 6 7 8 9 10 11 12 13 14 15 16 17 18 19 20 21 22 23 24 25 26 27 28 29 30 31 32 33 34 35 36 37 38 39 40 41 42 43 44 45 46 47 48 49 50
000
ASUS42 KCHS 202325
RWRCHS

REGIONAL WEATHER ROUNDUP
NATIONAL WEATHER SERVICE CHARLESTON SC
600 PM EST SAT DEC 20 2014

NOTE: "FAIR" INDICATES FEW OR NO CLOUDS BELOW 12,000 FEET WITH NO
SIGNIFICANT WEATHER AND/OR OBSTRUCTIONS TO VISIBILITY.

NOT ALL STATIONS ARE QUALITY CONTROLLED BY THE NATIONAL
WEATHER SERVICE. USE DATA WITH CAUTION...ESPECIALLY
DEWPOINT OBSERVATIONS.

SCZ027-030-031-034>040-042>050-210000-
...SOUTHEAST SOUTH CAROLINA...

CITY           SKY/WX    TMP DP  RH WIND       PRES   REMARKS
N CHARLESTON   CLOUDY    51  49  92 NE9       30.19S
WATERFRONT PRK NOT AVBL
MOUNT PLEASANT CLOUDY    52  52 100 N7        30.20R
PINOPOLIS        N/A     50  48  93 E8        30.11R
MONCKS CORNER  CLOUDY    50  46  87 E8        30.20R
SUMMERVILLE    CLOUDY    50  50 100 CALM      30.21R
BEAUFORT MCAS  CLOUDY    54  51  90 NE7       30.18R
BEAUFORT ARPT  CLOUDY    54  52  94 N9        30.17S
HILTON HEAD IS CLOUDY    55  52  88 N6        30.17R
WALTERBORO     CLOUDY    52 N/A N/A NE5       30.20R
ALLENDALE      CLOUDY    50  50 100 CALM      30.19R FOG

...SOUTHERN MIDLANDS AND PEE DEE...

CITY           SKY/WX    TMP DP  RH WIND       PRES   REMARKS
GEORGETOWN     NOT AVBL
KINGSTREE      NOT AVBL
ORANGEBURG     CLOUDY    48  45  89 E7        30.21R FOG
BARNWELL       CLOUDY    48  48 100 NE10      30.21R
AIKEN          CLOUDY    46  46 100 NE7       30.24R FOG
MANNING        NOT AVBL
COLUMBIA       CLOUDY    49  43  80 E6        30.21R
SUMTER         CLOUDY    46  41  83 NE9       30.21R
FLORENCE       CLOUDY    45  39  79 NE7       30.24R
MYRTLE BEACH   CLOUDY    46  43  87 NE12      30.24R
N MYRTLE BEACH CLOUDY    45  41  86 NE10      30.23R

$$

GAZ063-065-086>088-099>101-113>116-118-119-134>141-150-210000-
...SOUTHEAST GEORGIA...

CITY           SKY/WX    TMP DP  RH WIND       PRES   REMARKS
SAVANNAH ARPT  CLOUDY    55  51  86 N6        30.16S
HUNTER AAF     MOCLDY    55  52  88 VRB6      30.13S
FORT STEWART   NOT AVBL
STATESBORO     CLOUDY    53  53 100 NE3       30.17R
SYLVANIA       CLOUDY    53  52  97 NE5       30.19R
CLAXTON        CLOUDY    54  52  94 NE3       30.17R

...CSRA...CENTRAL AND FAR SOUTHEAST GEORGIA...

CITY           SKY/WX    TMP DP  RH WIND       PRES   REMARKS
THOMSON        CLOUDY    51  51 100 N3        30.24R
AUGUSTA-BUSH   CLOUDY    51  48  89 NE7       30.19R
AUGUSTA-DANIEL CLOUDY    51  50  96 NE7       30.19R FOG
SWAINSBORO     CLOUDY    55  55 100 E3        30.17S
VIDALIA        CLOUDY    54  52  94 NE5       30.16R
EASTMAN        CLOUDY    55  55 100 N3        30.18R
HAZLEHURST     CLOUDY    56  55  94 CALM      30.14R
ALMA           CLOUDY    56  51  84 CALM      30.13R
WAYCROSS       CLOUDY    59  54  83 NE3       30.14R
JESUP          LGT RAIN  59  54  82 NE3       30.15R
BAXLEY         LGT RAIN  55  54  94 NE5       30.14S
BRUNSWICK      CLOUDY    55  52  88 NE7       30.16R
SAINT SIMONS   CLOUDY    56  52  86 NE13      30.14R

$$

SCZ027-028-034-036>038-045-046-048>050-GAZ119-141-210000-
...LAKE AND SUPPLEMENTAL COASTAL OBSERVATIONS...

STATION/POSITION TIME  TEMP    WIND        PRES    WAVE   SWELL
                       AIR SEA DIR/SP/G            HT/PER HT/PER/DIR
                 (UTC) (F)     (DEG/KT/KT) (MB)    (FT/S) (FT/S/D)
UPR LAKE MARION  NOT AVBL
WINYAH BAY       2300   49      40/ 12     1022.0S
LAKE MURRAY      2200   47      30/  2/  4 1022.4R
ACE BASIN NERRS  2300   53      20/  1     1021.0S
FORT PULASKI     2300   55 57   20/  8/  9 1021.5R
SAPELO ISLAND    2300   56      20/  8     1021.0R

$$

ANZ835-935-AMZ111-154-330-350-352-354-370-450-454-472-210000-
...C-MAN AND BUOY OBSERVATIONS...

STATION/POSITION TIME  TEMP    WIND        PRES    WAVE   SWELL
                       AIR SEA DIR/SP/G            HT/PER HT/PER/DIR
                 (UTC) (F)     (DEG/KT/KT) (MB)    (FT/S) (FT/S/D)
BUOY 41004       2300   61 70   40/ 16/ 19 1020.6R   5/ 5   2/11
BUOY 41008       2300   58 59   30/ 17/ 19 1020.0R   4/ 6   2/ 60/11
FOLLY BEACH CMAN 2300   52      30/ 17/ 18 1022.6R
CAPERS NEARSHORE 2200   53      40/ 17/ 21   N/A
FRIPP NEARSHORE  NOT AVBL


STATION/POSITION TIME  TEMP    WIND        PRES    WAVE   SWELL
                       AIR SEA DIR/SP/G            HT/PER HT/PER/DIR
                 (UTC) (F)     (DEG/KT/KT) (MB)    (FT/S) (FT/S/D)
5E ST. MARYS GA  2300      61                N/A     3/ 4
FRYING PAN BUOY  2300   55 68   50/ 17/ 23 1022.6R   5/ 5
BUOY 41025       2300   47                 1024.0R   3/ 7
CAPE LOOKOUT NC  2300   43      10/ 11/ 13 1024.4R
BUOY 41002       2235   65 71   80/ 16/ 19 1020.6R   3/ 4   2/ 30/ 7
BUOY 41010       2300   73 77  230/  2/  6 1019.1R   3/11   3/110/11
ST AUGUSTINE FL  2300   61     360/ 14/ 15 1019.8R


$$


USA.gov is the U.S. government's official web portal to all federal, state and local government web resources and services.